O'Neill, NE

10:04 PM CDT on July 22, 2017 (GMT -0500)
The O'Neill Municipal-Baker

Weather History for KONL - January, 2014

Change the Weather History Date:

Sunday, January 26, 2014

  Actual Average Record
Temperature  
Mean Temperature 26 °F -  
Max Temperature 49 °F 27 °F 71 °F (2002)
Min Temperature 3 °F 10 °F -22 °F (1950)
Degree Days  
Heating Degree Days 38    
Moisture  
Dew Point 16 °F    
Average Humidity 55    
Maximum Humidity 72    
Minimum Humidity 35    
Precipitation  
Precipitation 0.00 in - - ()
Sea Level Pressure  
Sea Level Pressure 29.82 in    
Wind  
Wind Speed 24 mph (NW)    
Max Wind Speed 38 mph    
Max Gust Speed 50 mph    
Visibility 10 miles    
Events Snow    
Averages and records for this station are not official NWS values.
T = Trace of Precipitation, MM = Missing Value Source: NWS Daily Summary

Daily Weather History Graph

Daily Weather History Graph

Search for Another Location

Airport or City:

Trip Planner

Search our weather history database for the weather conditions in past years. The results will help you decide how hot, cold, wet, or windy it might be!

Date:

Astronomy

Jan. 26, 2014 Rise Set
Actual Time 7:54 AM CST 5:40 PM CST
Civil Twilight 7:23 AM CST 6:11 PM CST
Nautical Twilight 6:49 AM CST 6:45 PM CST
Astronomical Twilight 6:16 AM CST 7:18 PM CST
Moon 3:33 AM CST (1/26) 1:30 PM CST (1/26)
Length of Visible Light 10h 47m
Length of Day
9h 46m
Waning Crescent, 23% of the Moon is Illuminated
Jan 26
Waning Crescent
Jan 30
New
Feb 6
First Quarter
Feb 14
Full
Feb 22
Last Quarter

Hourly Weather History & Observations

Time (CST) Temp. Windchill Dew Point Humidity Pressure Visibility Wind Dir Wind Speed Gust Speed Precip Events Conditions
12:15 AM 49.5 °F - 27.1 °F 42% 29.58 in 10.0 mi WNW 15.0 mph 27.6 mph N/A   Clear
12:35 AM 49.5 °F - 27.9 °F 43% 29.58 in 10.0 mi NW 21.9 mph 25.3 mph N/A   Clear
12:55 AM 49.8 °F - 28.8 °F 44% 29.58 in 10.0 mi NW 25.3 mph 33.4 mph N/A   Mostly Cloudy
1:15 AM 49.3 °F - 28.9 °F 45% 29.59 in 10.0 mi NW 26.5 mph 42.6 mph N/A   Scattered Clouds
1:35 AM 48.6 °F - 29.3 °F 47% 29.59 in 10.0 mi NW 26.5 mph 43.7 mph N/A   Clear
1:55 AM 46.8 °F - 29.3 °F 51% 29.60 in 10.0 mi NW 21.9 mph 29.9 mph N/A   Clear
2:15 AM 46.6 °F - 29.8 °F 52% 29.61 in 10.0 mi NW 33.4 mph 41.4 mph N/A   Clear
2:35 AM 45.5 °F 37.3 °F 30.2 °F 55% 29.62 in 10.0 mi NW 21.9 mph 36.8 mph N/A   Clear
2:55 AM 45.0 °F 36.4 °F 30.2 °F 56% 29.63 in 10.0 mi NW 23.0 mph 38.0 mph N/A   Clear
3:15 AM 44.8 °F 35.3 °F 30.6 °F 57% 29.64 in 10.0 mi NW 27.6 mph 38.0 mph N/A   Mostly Cloudy
3:35 AM 43.7 °F 34.5 °F 30.4 °F 59% 29.65 in 10.0 mi NW 24.2 mph 29.9 mph N/A   Mostly Cloudy
3:55 AM 42.4 °F 33.3 °F 30.0 °F 61% 29.65 in 10.0 mi NW 21.9 mph 28.8 mph N/A   Mostly Cloudy
4:15 AM 41.9 °F 32.6 °F 29.8 °F 62% 29.65 in 10.0 mi WNW 21.9 mph 27.6 mph N/A   Mostly Cloudy
4:35 AM 42.1 °F 33.1 °F 29.1 °F 60% 29.65 in 10.0 mi NW 20.7 mph 27.6 mph N/A   Mostly Cloudy
4:55 AM 40.6 °F 31.4 °F 28.9 °F 63% 29.66 in 10.0 mi WNW 19.6 mph 27.6 mph N/A   Scattered Clouds
5:15 AM 39.7 °F 30.6 °F 28.8 °F 65% 29.66 in 10.0 mi WNW 18.4 mph 25.3 mph N/A   Clear
5:35 AM 39.9 °F 30.0 °F 28.2 °F 63% 29.67 in 10.0 mi WNW 21.9 mph 29.9 mph N/A   Clear
5:55 AM 40.1 °F 30.5 °F 27.9 °F 62% 29.66 in 10.0 mi WNW 20.7 mph 29.9 mph N/A   Scattered Clouds
6:15 AM 39.7 °F 30.9 °F 27.9 °F 63% 29.67 in 10.0 mi WNW 17.3 mph 27.6 mph N/A   Mostly Cloudy
6:35 AM 38.8 °F 29.4 °F 27.3 °F 63% 29.66 in 10.0 mi WNW 18.4 mph 27.6 mph N/A   Scattered Clouds
6:55 AM 38.3 °F 29.0 °F 26.6 °F 63% 29.65 in 10.0 mi WNW 17.3 mph 26.5 mph N/A   Scattered Clouds
7:15 AM 36.7 °F 28.0 °F 26.6 °F 67% 29.64 in 10.0 mi WNW 13.8 mph - N/A   Scattered Clouds
7:35 AM 35.6 °F 26.6 °F 26.4 °F 69% 29.63 in 10.0 mi West 13.8 mph - N/A   Clear
7:55 AM 34.9 °F 25.3 °F 26.6 °F 72% 29.62 in 10.0 mi WNW 15.0 mph - N/A   Clear
8:15 AM 35.6 °F 27.1 °F 26.6 °F 70% 29.63 in 10.0 mi West 12.7 mph - N/A   Clear
8:35 AM 35.6 °F 27.1 °F 27.0 °F 71% 29.62 in 10.0 mi West 12.7 mph - N/A   Clear
8:55 AM 37.2 °F 29.1 °F 27.5 °F 68% 29.62 in 10.0 mi West 12.7 mph - N/A   Clear
9:15 AM 39.7 °F 31.9 °F 27.9 °F 63% 29.61 in 10.0 mi West 13.8 mph 19.6 mph N/A   Clear
9:35 AM 40.3 °F 31.9 °F 28.0 °F 62% 29.60 in 10.0 mi West 16.1 mph 20.7 mph N/A   Clear
9:55 AM 41.7 °F 34.4 °F 28.2 °F 59% 29.59 in 10.0 mi West 13.8 mph 18.4 mph N/A   Clear
10:15 AM 43.5 °F 35.5 °F 28.0 °F 54% 29.60 in 10.0 mi WNW 18.4 mph 24.2 mph N/A   Clear
10:35 AM 44.8 °F 38.3 °F 27.9 °F 52% 29.60 in 10.0 mi West 13.8 mph 20.7 mph N/A   Clear
10:55 AM 45.7 °F 39.1 °F 26.8 °F 48% 29.59 in 10.0 mi West 15.0 mph 25.3 mph N/A   Clear
11:15 AM 47.8 °F - 26.2 °F 43% 29.61 in 10.0 mi WNW 26.5 mph 34.5 mph N/A   Clear
11:35 AM 49.5 °F - 22.5 °F 35% 29.61 in 10.0 mi WNW 32.2 mph 43.7 mph N/A   Scattered Clouds
11:55 AM 48.9 °F - 22.3 °F 35% 29.61 in 10.0 mi NW 35.7 mph 47.2 mph N/A   Mostly Cloudy
12:15 PM 48.0 °F - 22.1 °F 36% 29.62 in 10.0 mi NW 34.5 mph 44.9 mph N/A   Overcast
12:35 PM 46.8 °F - 22.1 °F 38% 29.62 in 10.0 mi NW 38.0 mph 48.3 mph N/A   Overcast
12:55 PM 37.4 °F 23.6 °F 26.2 °F 64% 29.68 in 10.0 mi NNW 38.0 mph 48.3 mph N/A   Overcast
1:15 PM 34.5 °F 20.6 °F 23.0 °F 63% 29.69 in 10.0 mi North 32.2 mph 38.0 mph N/A   Overcast
1:35 PM 32.0 °F 17.4 °F 19.9 °F 61% 29.73 in 10.0 mi NNW 31.1 mph 42.6 mph N/A   Overcast
1:55 PM 32.7 °F 17.9 °F 19.9 °F 59% 29.75 in 10.0 mi NNW 33.4 mph 41.4 mph N/A   Overcast
2:15 PM 29.5 °F 13.1 °F 15.4 °F 56% 29.79 in 5.0 mi NNW 35.7 mph 47.2 mph N/A Snow Light Snow
2:35 PM 28.4 °F 11.8 °F 15.8 °F 59% 29.81 in 5.0 mi NNW 34.5 mph 46.0 mph N/A Snow Light Snow
2:55 PM 27.3 °F 11.5 °F 18.0 °F 68% 29.82 in 5.0 mi NNW 28.8 mph 36.8 mph N/A Snow Light Snow
3:15 PM 27.1 °F 9.8 °F 18.3 °F 69% 29.85 in 10.0 mi NW 35.7 mph 41.4 mph N/A   Overcast
3:35 PM 23.9 °F 5.6 °F 7.9 °F 51% 29.89 in 10.0 mi NNW 34.5 mph 42.6 mph N/A   Overcast
3:55 PM 22.6 °F 4.6 °F 2.3 °F 42% 29.91 in 10.0 mi NNW 31.1 mph 44.9 mph N/A   Scattered Clouds
4:15 PM 21.7 °F 2.9 °F 2.5 °F 43% 29.94 in 10.0 mi NNW 33.4 mph 41.4 mph N/A   Scattered Clouds
4:35 PM 20.8 °F 0.7 °F 2.5 °F 45% 29.96 in 10.0 mi NNW 38.0 mph 43.7 mph N/A   Mostly Cloudy
4:55 PM 19.8 °F -0.6 °F 8.8 °F 62% 29.99 in 5.0 mi NNW 36.8 mph 49.5 mph N/A Snow Light Snow
5:15 PM 17.4 °F -3.6 °F 7.0 °F 64% 30.03 in 5.0 mi NNW 35.7 mph 46.0 mph N/A Snow Light Snow
5:35 PM 16.2 °F -4.5 °F -0.0 °F 49% 30.04 in 10.0 mi NNW 32.2 mph 47.2 mph N/A   Mostly Cloudy
5:55 PM 15.4 °F -5.5 °F 0.5 °F 52% 30.06 in 10.0 mi NNW 32.2 mph 40.3 mph N/A   Scattered Clouds
6:15 PM 14.5 °F -6.7 °F -4.0 °F 44% 30.09 in 10.0 mi NNW 32.2 mph 42.6 mph N/A   Mostly Cloudy
6:35 PM 13.3 °F -7.5 °F -3.8 °F 47% 30.11 in 10.0 mi NNW 28.8 mph 41.4 mph N/A   Scattered Clouds
6:55 PM 12.2 °F -8.6 °F -3.8 °F 49% 30.12 in 10.0 mi NNW 27.6 mph 35.7 mph N/A   Clear
7:15 PM 11.1 °F -11.4 °F -2.9 °F 53% 30.14 in 10.0 mi NNW 32.2 mph 39.1 mph N/A   Clear
7:35 PM 10.4 °F -11.7 °F -5.1 °F 50% 30.16 in 10.0 mi NNW 29.9 mph 39.1 mph N/A   Clear
7:55 PM 9.5 °F -12.9 °F -5.6 °F 50% 30.17 in 10.0 mi NNW 29.9 mph 39.1 mph N/A   Clear
8:15 PM 8.8 °F -13.2 °F -7.4 °F 48% 30.18 in 10.0 mi NNW 27.6 mph 39.1 mph N/A   Clear
8:35 PM 8.1 °F -15.2 °F -6.3 °F 52% 30.19 in 10.0 mi NNW 31.1 mph 39.1 mph N/A   Clear
8:55 PM 7.2 °F -15.0 °F -5.8 °F 55% 30.21 in 10.0 mi NNW 26.5 mph 35.7 mph N/A   Clear
9:15 PM 6.6 °F -14.1 °F -6.0 °F 56% 30.22 in 10.0 mi NNW 21.9 mph 34.5 mph N/A   Clear
9:35 PM 6.4 °F -16.7 °F -6.9 °F 54% 30.23 in 10.0 mi NW 28.8 mph 34.5 mph N/A   Clear
9:55 PM 5.9 °F -18.2 °F -7.6 °F 54% 30.24 in 10.0 mi NNW 31.1 mph 36.8 mph N/A   Scattered Clouds
10:15 PM 5.7 °F -17.7 °F -9.4 °F 50% 30.25 in 10.0 mi NNW 28.8 mph 36.8 mph N/A   Clear
10:35 PM 5.0 °F -18.7 °F -9.2 °F 52% 30.26 in 10.0 mi NNW 28.8 mph 36.8 mph N/A   Clear
10:55 PM 5.0 °F -19.0 °F -8.9 °F 53% 30.27 in 10.0 mi NNW 29.9 mph 36.8 mph N/A   Clear
11:15 PM 4.6 °F -14.6 °F -9.0 °F 53% 30.27 in 10.0 mi NNW 17.3 mph 29.9 mph N/A   Clear
11:35 PM 4.1 °F -16.4 °F -9.4 °F 54% 30.29 in 10.0 mi NNW 19.6 mph 26.5 mph N/A   Clear
11:55 PM 3.9 °F -15.0 °F -9.4 °F 54% 30.29 in 10.0 mi NNW 16.1 mph - N/A   Clear